Epoch,demod_status_bits,ebno,lock_status,signal_level,viterbi_ber
1663263167,C;S;V;F,11.2,0x00c000,-41.0,3.12e-5
1663263168,C;S;V;F,10.9,0x00c000,-40.0,4.21e-5
1663263169,C;S;V;F,11.8,0x00c000,-40.4,9.99e-6
1663263170,C;S;V;F,10.8,0x00c000,-42.0,7.03e-5
1663263171,C;S;V;F,11.6,0x00c000,-40.6,1.28e-4
1663263172,,12.2,0x00c000,-39.9,
1663263173,C;S;V;F,12.1,0x00c000,-39.9,2.18e-5
1663263174,C;S;V;F,,0x00c000,-39.3,3.02e-6
1663263175,C;S;V;F,12.9,0x00c000,,1.96e-6
1663263176,C;S;V;F,12.2,0x00c000,-39.4,1.66e-6
1663263177,C;S;V;F,13.7,0x00c000,-38.2,3.03e-7
1663263178,C;S;V;F,11.5,0x00c000,-41.5,3.57e-5
1663263179,C;S;V;F,10.0,0x00c000,-40.6,1.19e-4
1663263180,C;S;V;F,11.6,0x00c000,-40.1,2.34e-5
1663263181,C;S;V;F,12.1,0x00c000,-39.6,4.23e-6
1663263182,C;S;V;F,12.6,0x00c000,-38.9,
1663263183,,13.7,0x00c000,-39.2,9.09e-7
1663263184,C;S;V;F,12.0,0x00c000,-40.4,3.03e-7
1663263185,C;S;V;F,11.6,0x00c000,-40.1,5.44e-6
1663263186,C;S;V;F,,0x00c000,-40.3,7.41e-6
1663263187,C;S;V;F,11.6,0x00c000,-39.5,6.65e-6
1663263188,C;S;V;F,11.9,0x00c000,-39.1,5.14e-6
1663263189,C;S;V;F,12.7,0x00c000,,1.81e-6
1663263190,C;S;V;F,12.6,0x00c000,-39.6,9.09e-7
1663263191,C;S;V;F,12.6,0x00c000,-38.9,9.09e-7
1663263192,C;S;V;F,13.3,0x00c000,-38.9,1.51e-7
1663263193,C;S;V;F,12.8,0x00c000,-39.3,0.00e-0
1663263194,C;S;V;F,12.9,0x00c000,-39.6,1.51e-7
1663263195,C;S;V;F,12.8,0x00c000,-39.4,1.36e-6
1663263196,C;S;V;F,12.3,0x00c000,-40.0,1.36e-6
1663263197,C;S;V;F,12.7,0x00c000,-39.3,1.21e-6
1663263198,C;S;V;F,12.3,0x00c000,-39.9,
1663263199,,12.3,0x00c000,-39.7,6.06e-7
1663263200,C;S;V;F,12.8,0x00c000,-39.7,2.11e-6
1663263201,C;S;V;F,12.3,0x00c000,-39.9,1.21e-6
1663263202,C;S;V;F,12.1,0x00c000,-39.7,9.09e-7
1663263203,C;S;V;F,,0x00c000,-39.4,2.72e-6
1663263204,C;S;V;F,13.0,0x00c000,,1.66e-6
1663263205,C;S;V;F,12.4,0x00c000,-39.9,1.05e-6
1663263206,C;S;V;F,11.9,0x00c000,-40.4,5.74e-6
1663263207,C;S;V;F,12.2,0x00c000,-39.3,4.38e-6
1663263208,C;S;V;F,12.8,0x00c000,-39.7,9.09e-7
1663263209,C;S;V;F,12.2,0x00c000,-39.6,1.81e-6
1663263210,C;S;V;F,12.8,0x00c000,-39.6,7.57e-7
1663263211,C;S;V;F,12.4,0x00c000,-40.1,9.09e-7
1663263212,C;S;V;F,12.5,0x00c000,-39.4,1.51e-6
1663263213,C;S;V;F,12.8,0x00c000,-39.8,9.09e-7
1663263214,C;S;V;F,12.5,0x00c000,-39.3,9.09e-7
1663263215,C;S;V;F,13.0,0x00c000,-39.6,
1663263216,,12.4,0x00c000,-39.9,0.00e-0
1663263217,C;S;V;F,12.9,0x00c000,-39.2,6.06e-7
1663263218,C;S;V;F,12.9,0x00c000,-39.7,7.57e-7
1663263219,C;S;V;F,12.4,0x00c000,-39.7,3.03e-7
1663263220,C;S;V;F,,0x00c000,-39.9,1.21e-6
1663263221,C;S;V;F,12.2,0x00c000,-39.2,1.51e-6
1663263222,C;S;V;F,12.9,0x00c000,,1.05e-6
1663263223,C;S;V;F,13.0,0x00c000,-39.4,3.03e-7
1663263224,C;S;V;F,12.8,0x00c000,-39.4,4.54e-7
1663263225,C;S;V;F,13.2,0x00c000,-39.1,1.51e-7
1663263227,,13.3,0x00c000,-39.2,
1663263228,C;S;V;F,,0x00c000,-38.8,0.00e-0
1663263229,C;S;V;F,13.2,0x00c000,-38.8,0.00e-0
1663263230,C;S;V;F,13.9,0x00c000,,0.00e-0
1663263231,C;S;V;F,13.3,0x00c000,-39.0,0.00e-0
1663263232,C;S;V;F,13.4,0x00c000,-39.0,0.00e-0
1663263233,C;S;V;F,13.6,0x00c000,-39.0,0.00e-0
1663263234,C;S;V;F,13.7,0x00c000,-38.7,0.00e-0
1663263235,C;S;V;F,13.7,0x00c000,-38.8,0.00e-0
1663263236,C;S;V;F,13.5,0x00c000,-38.7,
1663263237,C;S;V;F,13.8,0x00c000,-38.7,0.00e-0
1663263238,,13.5,0x00c000,-38.8,0.00e-0
1663263239,C;S;V;F,,0x00c000,-38.8,0.00e-0
1663263240,C;S;V;F,13.5,0x00c000,,0.00e-0
1663263241,C;S;V;F,13.7,0x00c000,-38.8,0.00e-0
1663263242,C;S;V;F,13.7,0x00c000,-38.8,0.00e-0
1663263243,C;S;V;F,13.6,0x00c000,-38.9,0.00e-0
1663263244,C;S;V;F,13.4,0x00c000,-39.0,0.00e-0
1663263245,C;S;V;F,13.8,0x00c000,-38.8,0.00e-0
1663263246,C;S;V;F,13.8,0x00c000,-38.8,0.00e-0
1663263247,C;S;V;F,13.7,0x00c000,-38.6,0.00e-0
1663263248,C;S;V;F,14.0,0x00c000,-38.3,0.00e-0
1663263249,C;S;V;F,14.1,0x00c000,-38.5,0.00e-0
1663263250,,14.1,0x00c000,-38.5,
1663263251,C;S;V;F,14.2,0x00c000,-38.2,0.00e-0
1663263252,C;S;V;F,14.4,0x00c000,-37.9,0.00e-0
1663263253,C;S;V;F,,0x00c000,-38.3,0.00e-0
1663263254,C;S;V;F,14.3,0x00c000,-37.9,0.00e-0
1663263255,C;S;V;F,14.6,0x00c000,,0.00e-0
1663263256,C;S;V;F,14.6,0x00c000,-38.0,0.00e-0
1663263257,C;S;V;F,14.6,0x00c000,-37.9,0.00e-0
1663263258,C;S;V;F,14.3,0x00c000,-38.1,0.00e-0
1663263259,C;S;V;F,14.7,0x00c000,-37.8,0.00e-0
1663263260,C;S;V;F,15.1,0x00c000,-37.5,0.00e-0
1663263261,C;S;V;F,14.6,0x00c000,-37.5,0.00e-0
1663263262,C;S;V;F,14.9,0x00c000,-37.5,0.00e-0
1663263263,C;S;V;F,15.0,0x00c000,-37.6,0.00e-0
1663263264,C;S;V;F,15.3,0x00c000,-37.4,
1663263265,,14.8,0x00c000,-37.8,0.00e-0
1663263266,C;S;V;F,14.8,0x00c000,-37.7,0.00e-0
1663263267,C;S;V;F,14.8,0x00c000,-37.7,0.00e-0
1663263268,C;S;V;F,,0x00c000,-37.7,0.00e-0
1663263269,C;S;V;F,14.7,0x00c000,,0.00e-0
1663263270,C;S;V;F,15.3,0x00c000,-37.2,0.00e-0
1663263271,C;S;V;F,15.0,0x00c000,-37.6,0.00e-0
1663263272,C;S;V;F,15.2,0x00c000,-37.4,0.00e-0
1663263273,C;S;V;F,15.2,0x00c000,-37.4,0.00e-0
1663263274,C;S;V;F,15.0,0x00c000,-37.6,0.00e-0
1663263275,C;S;V;F,14.8,0x00c000,-37.6,0.00e-0
1663263276,C;S;V;F,14.7,0x00c000,-37.9,
1663263277,,14.8,0x00c000,-38.0,0.00e-0
1663263278,C;S;V;F,14.7,0x00c000,-37.9,0.00e-0
1663263279,C;S;V;F,14.8,0x00c000,-37.6,0.00e-0
1663263280,C;S;V;F,,0x00c000,,0.00e-0
1663263283,C;S;V;F,14.6,0x00c000,-37.8,0.00e-0
1663263284,C;S;V;F,14.5,0x00c000,-38.0,0.00e-0
1663263285,C;S;V;F,14.8,0x00c000,-38.0,
1663263286,C;S;V;F,14.8,0x00c000,-37.9,0.00e-0
1663263287,,14.7,0x00c000,-37.8,0.00e-0
1663263288,C;S;V;F,,,,0.00e-0
1663263290,C;S;V;F,14.9,0x00c000,-37.8,0.00e-0
1663263291,C;S;V;F,15.0,0x00c000,-38.1,
1663263292,,14.6,0x00c000,-38.0,0.00e-0
1663263293,C;S;V;F,14.5,0x00c000,-38.2,0.00e-0
1663263294,C;S;V;F,14.5,0x00c000,-38.0,0.00e-0
1663263295,C;S;V;F,,0x00c000,-38.0,0.00e-0
1663263296,C;S;V;F,14.6,0x00c000,,0.00e-0
1663263297,C;S;V;F,14.6,0x00c000,-38.0,0.00e-0
1663263298,C;S;V;F,14.6,0x00c000,-37.9,0.00e-0
1663263299,C;S;V;F,14.4,0x00c000,-38.2,0.00e-0
1663263300,C;S;V;F,14.4,0x00c000,-37.9,0.00e-0
1663263301,C;S;V;F,14.8,0x00c000,-37.9,0.00e-0
1663263302,C;S;V;F,14.7,0x00c000,-38.0,0.00e-0
1663263303,C;S;V;F,14.8,0x00c000,-37.9,0.00e-0
1663263304,,14.7,0x00c000,-38.0,
1663263305,C;S;V;F,14.5,0x00c000,-38.4,0.00e-0
1663263306,C;S;V;F,14.4,0x00c000,-38.1,0.00e-0
1663263307,C;S;V;F,,0x00c000,-37.9,0.00e-0
1663263308,C;S;V;F,14.7,0x00c000,,0.00e-0
1663263309,C;S;V;F,14.6,0x00c000,-38.3,0.00e-0
1663263310,C;S;V;F,14.2,0x00c000,-38.4,0.00e-0
1663263311,C;S;V;F,14.7,0x00c000,-38.1,0.00e-0
1663263312,C;S;V;F,14.3,0x00c000,-38.4,0.00e-0
1663263313,C;S;V;F,14.1,0x00c000,-38.8,0.00e-0
1663263314,C;S;V;F,14.1,0x00c000,-38.7,0.00e-0
1663263315,C;S;V;F,14.4,0x00c000,-38.1,0.00e-0
1663263316,C;S;V;F,14.8,0x00c000,-38.4,0.00e-0
1663263317,C;S;V;F,14.4,0x00c000,-38.0,0.00e-0
1663263318,,14.5,0x00c000,-38.0,
1663263319,C;S;V;F,14.4,0x00c000,-38.1,0.00e-0
1663263320,C;S;V;F,14.5,0x00c000,-38.1,0.00e-0
1663263321,C;S;V;F,14.7,0x00c000,-38.1,0.00e-0
1663263322,C;S;V;F,,0x00c000,-37.9,0.00e-0
1663263323,C;S;V;F,14.8,0x00c000,,0.00e-0
1663263324,C;S;V;F,14.6,0x00c000,-38.1,0.00e-0
1663263325,C;S;V;F,14.6,0x00c000,-38.3,0.00e-0
1663263326,C;S;V;F,14.3,0x00c000,-38.3,0.00e-0
1663263327,C;S;V;F,14.8,0x00c000,-38.0,0.00e-0
1663263328,C;S;V;F,15.0,0x00c000,-38.0,0.00e-0
1663263329,C;S;V;F,14.6,0x00c000,-38.2,0.00e-0
1663263330,C;S;V;F,15.0,0x00c000,-37.6,0.00e-0
1663263331,C;S;V;F,15.3,0x00c000,-37.6,0.00e-0
1663263332,C;S;V;F,15.3,0x00c000,-37.2,0.00e-0
1663263333,C;S;V;F,15.6,0x00c000,-37.1,
1663263334,,15.6,0x00c000,-37.1,0.00e-0
1663263335,C;S;V;F,15.6,0x00c000,-37.1,0.00e-0
1663263336,C;S;V;F,15.6,0x00c000,-37.0,0.00e-0
1663263337,C;S;V;F,,0x00c000,-37.2,0.00e-0
1663263338,C;S;V;F,15.5,0x00c000,-37.2,0.00e-0
1663263339,C;S;V;F,15.7,0x00c000,-37.1,0.00e-0
1663263340,C;S;V;F,15.5,0x00c000,,0.00e-0
1663263341,C;S;V;F,15.2,0x00c000,-37.2,0.00e-0
1663263342,C;S;V;F,15.4,0x00c000,-37.1,0.00e-0
1663263343,C;S;V;F,15.5,0x00c000,-36.9,0.00e-0
1663263344,C;S;V;F,15.9,0x00c000,-36.4,0.00e-0
1663263345,C;S;V;F,16.5,0x00c000,-36.0,
1663263346,,16.1,0x00c000,-36.0,0.00e-0
1663263347,C;S;V;F,,,,0.00e-0
1663263348,C;S;V;F,16.4,0x00c000,-36.3,0.00e-0
1663263349,C;S;V;F,16.2,0x00c000,-36.3,0.00e-0
1663263350,C;S;V;F,16.1,0x00c000,-36.7,0.00e-0
1663263353,C;S;V;F,15.8,0x00c000,-36.7,0.00e-0
1663263354,C;S;V;F,16.0,0x00c000,-36.4,0.00e-0
1663263355,C;S;V;F,16.2,0x00c000,-36.1,
1663263356,,16.5,0x00c000,-35.6,0.00e-0
1663263357,C;S;V;F,16.3,0x00c000,-35.8,0.00e-0
1663263358,C;S;V;F,16.3,0x00c000,-36.0,0.00e-0
1663263359,C;S;V;F,,0x00c000,-36.0,0.00e-0
1663263360,C;S;V;F,16.0,0x00c000,-36.5,0.00e-0
1663263361,C;S;V;F,15.8,0x00c000,-36.6,0.00e-0
1663263362,C;S;V;F,15.7,0x00c000,,0.00e-0
1663263363,C;S;V;F,15.6,0x00c000,-36.4,0.00e-0
1663263364,C;S;V;F,15.5,0x00c000,-36.6,0.00e-0
1663263365,C;S;V;F,15.7,0x00c000,-36.4,0.00e-0
1663263366,C;S;V;F,15.8,0x00c000,-36.4,0.00e-0
1663263367,C;S;V;F,15.8,0x00c000,-36.4,0.00e-0
1663263368,C;S;V;F,15.8,0x00c000,-36.5,0.00e-0
1663263369,C;S;V;F,15.5,0x00c000,-36.9,0.00e-0
1663263370,C;S;V;F,15.3,0x00c000,-37.1,
1663263371,,15.2,0x00c000,-36.9,0.00e-0
1663263372,C;S;V;F,15.3,0x00c000,-37.0,0.00e-0
1663263373,C;S;V;F,15.2,0x00c000,-36.6,0.00e-0
1663263374,C;S;V;F,,0x00c000,-36.7,0.00e-0
1663263375,C;S;V;F,15.3,0x00c000,,0.00e-0
1663263376,C;S;V;F,15.0,0x00c000,-37.2,0.00e-0
1663263377,C;S;V;F,15.0,0x00c000,-37.6,0.00e-0
1663263378,C;S;V;F,14.6,0x00c000,-37.7,0.00e-0
1663263379,C;S;V;F,14.6,0x00c000,-37.2,0.00e-0
1663263380,C;S;V;F,15.5,0x00c000,-36.9,0.00e-0
1663263381,C;S;V;F,15.0,0x00c000,-36.8,0.00e-0
1663263382,C;S;V;F,14.6,0x00c000,-37.2,0.00e-0
1663263383,C;S;V;F,14.5,0x00c000,-37.9,
1663263384,,14.2,0x00c000,-38.0,0.00e-0
1663263385,C;S;V;F,15.1,0x00c000,-37.3,0.00e-0
1663263386,C;S;V;F,,0x00c000,-36.4,0.00e-0
1663263387,C;S;V;F,15.4,0x00c000,,0.00e-0
1663263388,C;S;V;F,15.7,0x00c000,-36.4,0.00e-0
1663263389,C;S;V;F,15.7,0x00c000,-36.5,0.00e-0
1663263390,C;S;V;F,15.6,0x00c000,-36.6,0.00e-0
1663263391,C;S;V;F,15.4,0x00c000,-36.6,0.00e-0
1663263392,C;S;V;F,15.9,0x00c000,-36.4,0.00e-0
1663263393,C;S;V;F,16.6,0x00c000,-35.7,0.00e-0
1663263394,C;S;V;F,16.8,0x00c000,-35.5,
1663263395,,16.6,0x00c000,-35.7,0.00e-0
1663263396,C;S;V;F,16.5,0x00c000,-35.8,0.00e-0
1663263397,C;S;V;F,16.5,0x00c000,-35.8,0.00e-0
1663263398,C;S;V;F,17.0,0x00c000,-35.3,0.00e-0
1663263399,C;S;V;F,,0x00c000,-34.8,0.00e-0
1663263400,C;S;V;F,17.1,0x00c000,-35.1,0.00e-0
1663263401,C;S;V;F,17.0,0x00c000,,0.00e-0
1663263402,C;S;V;F,16.7,0x00c000,-35.5,0.00e-0
1663263403,C;S;V;F,17.2,0x00c000,-35.2,0.00e-0
1663263404,C;S;V;F,17.3,0x00c000,-34.8,0.00e-0
1663263405,C;S;V;F,17.8,0x00c000,-34.3,0.00e-0
1663263406,C;S;V;F,17.5,0x00c000,-34.8,0.00e-0
1663263407,C;S;V;F,17.4,0x00c000,-34.7,
1663263408,,,0x00c000,-34.2,0.00e-0
1663263409,C;S;V;F,17.5,0x00c000,-34.1,0.00e-0
1663263410,C;S;V;F,17.7,0x00c000,,0.00e-0
1663263411,C;S;V;F,17.9,0x00c000,-34.1,0.00e-0
1663263412,C;S;V;F,17.6,0x00c000,-34.9,0.00e-0
1663263413,C;S;V;F,17.3,0x00c000,-35.2,0.00e-0
1663263415,,,0x00c000,-33.9,
1663263416,C;S;V;F,17.9,0x00c000,,0.00e-0
1663263417,C;S;V;F,17.7,0x00c000,-35.1,0.00e-0
1663263418,C;S;V;F,17.2,0x00c000,-35.2,0.00e-0
1663263419,C;S;V;F,17.6,0x00c000,-34.6,0.00e-0
1663263420,C;S;V;F,17.6,0x00c000,-34.4,
1663263421,,17.7,0x00c000,-34.8,0.00e-0
1663263422,C;S;V;F,17.2,0x00c000,-34.9,0.00e-0
1663263423,C;S;V;F,17.5,0x00c000,-34.9,0.00e-0
1663263424,C;S;V;F,,0x00c000,-33.9,0.00e-0
1663263425,C;S;V;F,17.9,0x00c000,-35.0,0.00e-0
1663263426,C;S;V;F,17.8,0x00c000,,0.00e-0
1663263427,C;S;V;F,16.7,0x00c000,-35.9,0.00e-0
1663263428,C;S;V;F,16.9,0x00c000,-35.5,0.00e-0
1663263429,C;S;V;F,17.5,0x00c000,-34.7,0.00e-0
1663263430,C;S;V;F,16.3,0x00c000,-35.6,0.00e-0
1663263431,C;S;V;F,16.3,0x00c000,-36.9,0.00e-0
1663263432,C;S;V;F,15.9,0x00c000,-35.5,0.00e-0
1663263433,C;S;V;F,17.4,0x00c000,-34.7,0.00e-0
1663263434,C;S;V;F,16.7,0x00c000,-36.1,
1663263435,,15.4,0x00c000,-37.5,0.00e-0
1663263436,C;S;V;F,16.8,0x00c000,-35.5,0.00e-0
1663263437,C;S;V;F,16.6,0x00c000,-35.2,0.00e-0
1663263438,C;S;V;F,,0x00c000,-37.3,0.00e-0
1663263439,C;S;V;F,16.6,0x00c000,-37.1,0.00e-0
1663263440,C;S;V;F,15.3,0x00c000,,0.00e-0
1663263441,C;S;V;F,17.0,0x00c000,-35.2,0.00e-0
1663263442,C;S;V;F,16.2,0x00c000,-35.7,0.00e-0
1663263443,C;S;V;F,15.2,0x00c000,-37.6,0.00e-0
1663263444,C;S;V;F,16.1,0x00c000,-36.3,0.00e-0
1663263445,C;S;V;F,16.9,0x00c000,-35.7,0.00e-0
1663263446,C;S;V;F,15.8,0x00c000,-36.9,0.00e-0
1663263447,C;S;V;F,14.7,0x00c000,-37.9,
1663263448,,15.7,0x00c000,-36.8,0.00e-0
1663263449,C;S;V;F,16.4,0x00c000,-36.4,0.00e-0
1663263450,C;S;V;F,15.6,0x00c000,-37.6,0.00e-0
1663263451,C;S;V;F,,0x00c000,-37.5,0.00e-0
1663263452,C;S;V;F,15.2,0x00c000,-36.4,0.00e-0
1663263453,C;S;V;F,15.9,0x00c000,,0.00e-0
1663263454,C;S;V;F,16.1,0x00c000,-36.4,0.00e-0
1663263455,C;S;V;F,15.4,0x00c000,-37.1,0.00e-0
1663263456,C;S;V;F,15.6,0x00c000,-37.2,0.00e-0
1663263457,C;S;V;F,16.3,0x00c000,-36.3,0.00e-0
1663263458,C;S;V;F,16.3,0x00c000,-36.3,0.00e-0
1663263459,C;S;V;F,16.3,0x00c000,-36.4,0.00e-0
1663263460,C;S;V;F,16.4,0x00c000,-36.3,0.00e-0
1663263461,C;S;V;F,16.0,0x00c000,-36.7,0.00e-0
1663263462,C;S;V;F,16.0,0x00c000,-37.1,
1663263463,,16.1,0x00c000,-36.5,0.00e-0
1663263464,C;S;V;F,16.1,0x00c000,-36.4,0.00e-0
1663263465,C;S;V;F,15.9,0x00c000,-36.9,0.00e-0
1663263466,C;S;V;F,15.6,0x00c000,-36.8,0.00e-0
1663263467,C;S;V;F,,0x00c000,-36.6,0.00e-0
1663263468,C;S;V;F,15.9,0x00c000,-36.5,0.00e-0
1663263469,C;S;V;F,16.2,0x00c000,-36.7,0.00e-0
1663263470,C;S;V;F,16.1,0x00c000,,0.00e-0
1663263471,C;S;V;F,16.2,0x00c000,-36.7,0.00e-0
1663263472,C;S;V;F,16.7,0x00c000,-35.9,0.00e-0
1663263473,C;S;V;F,16.7,0x00c000,-36.1,0.00e-0
1663263474,C;S;V;F,16.5,0x00c000,-36.6,0.00e-0
1663263475,C;S;V;F,16.4,0x00c000,-36.5,0.00e-0
1663263476,C;S;V;F,16.3,0x00c000,-36.3,0.00e-0
1663263478,,16.3,0x00c000,-36.3,
1663263479,C;S;V;F,16.4,0x00c000,-36.2,0.00e-0
1663263480,C;S;V;F,,0x00c000,-35.7,0.00e-0
1663263481,C;S;V;F,16.8,0x00c000,,0.00e-0
1663263482,C;S;V;F,16.6,0x00c000,-35.6,0.00e-0
1663263483,C;S;V;F,16.8,0x00c000,-35.7,0.00e-0
1663263484,C;S;V;F,17.4,0x00c000,-35.2,0.00e-0
1663263485,C;S;V;F,17.3,0x00c000,-35.4,0.00e-0
1663263486,C;S;V;F,16.8,0x00c000,-35.4,0.00e-0
1663263487,C;S;V;F,17.0,0x00c000,-35.5,
1663263488,,16.8,0x00c000,-35.5,0.00e-0
1663263489,C;S;V;F,17.2,0x00c000,-35.3,0.00e-0
1663263490,C;S;V;F,17.4,0x00c000,-34.9,0.00e-0
1663263491,C;S;V;F,,0x00c000,,0.00e-0
1663263492,C;S;V;F,17.5,0x00c000,-34.8,0.00e-0
1663263493,C;S;V;F,17.3,0x00c000,-34.9,0.00e-0
1663263494,C;S;V;F,17.5,0x00c000,-34.7,0.00e-0
1663263495,C;S;V;F,17.8,0x00c000,-34.3,0.00e-0
1663263496,C;S;V;F,18.0,0x00c000,-34.0,0.00e-0
1663263497,C;S;V;F,18.0,0x00c000,-34.0,0.00e-0
1663263498,C;S;V;F,18.1,0x00c000,-34.0,0.00e-0
1663263499,C;S;V;F,18.1,0x00c000,-34.0,0.00e-0
1663263500,C;S;V;F,18.1,0x00c000,-33.9,0.00e-0
1663263501,C;S;V;F,18.4,0x00c000,-33.9,0.00e-0
1663263502,C;S;V;F,18.3,0x00c000,-33.7,0.00e-0
1663263503,C;S;V;F,18.1,0x00c000,-33.6,0.00e-0
1663263504,,18.2,0x00c000,-33.6,
1663263505,C;S;V;F,18.4,0x00c000,-33.6,0.00e-0
1663263506,C;S;V;F,,0x00c000,-33.7,0.00e-0
1663263507,C;S;V;F,18.4,0x00c000,-33.5,0.00e-0
1663263508,C;S;V;F,18.6,0x00c000,,0.00e-0
1663263509,C;S;V;F,18.2,0x00c000,-33.5,0.00e-0
1663263510,C;S;V;F,18.3,0x00c000,-33.5,0.00e-0
1663263511,C;S;V;F,18.4,0x00c000,-33.4,0.00e-0
1663263512,C;S;V;F,18.4,0x00c000,-33.3,0.00e-0
1663263513,C;S;V;F,18.4,0x00c000,-33.2,0.00e-0
1663263514,C;S;V;F,18.3,0x00c000,-33.4,0.00e-0
1663263515,C;S;V;F,18.4,0x00c000,-33.6,0.00e-0
1663263516,C;S;V;F,18.4,0x00c000,-34.0,0.00e-0
1663263517,C;S;V;F,18.2,0x00c000,-34.0,
1663263518,,18.1,0x00c000,-34.1,0.00e-0
1663263519,C;S;V;F,18.4,0x00c000,-33.9,0.00e-0
1663263520,C;S;V;F,18.3,0x00c000,-34.1,0.00e-0
1663263521,C;S;V;F,18.1,0x00c000,-34.1,0.00e-0
1663263522,C;S;V;F,18.2,0x00c000,-34.4,0.00e-0
1663263523,C;S;V;F,,0x00c000,-34.4,0.00e-0
1663263524,C;S;V;F,17.8,0x00c000,-34.3,0.00e-0
1663263525,C;S;V;F,17.8,0x00c000,,0.00e-0
1663263526,C;S;V;F,17.9,0x00c000,-34.5,0.00e-0
1663263527,C;S;V;F,17.6,0x00c000,-34.8,0.00e-0
1663263528,C;S;V;F,17.5,0x00c000,-35.0,0.00e-0
1663263529,C;S;V;F,17.3,0x00c000,-35.0,0.00e-0
1663263530,C;S;V;F,17.4,0x00c000,-35.1,0.00e-0
1663263531,C;S;V;F,17.3,0x00c000,-35.0,0.00e-0
1663263532,C;S;V;F,17.0,0x00c000,-35.1,
1663263533,,17.5,0x00c000,-35.2,0.00e-0
1663263534,C;S;V;F,17.0,0x00c000,-35.5,0.00e-0
1663263535,C;S;V;F,17.0,0x00c000,-35.6,0.00e-0
1663263536,C;S;V;F,17.0,0x00c000,-35.4,0.00e-0
1663263537,C;S;V;F,,0x00c000,-35.5,0.00e-0
1663263538,C;S;V;F,17.3,0x00c000,-35.6,0.00e-0
1663263539,C;S;V;F,17.0,0x00c000,,0.00e-0
1663263541,,16.4,0x00c000,-36.2,
1663263542,C;S;V;F,16.4,0x00c000,-36.3,0.00e-0
1663263543,C;S;V;F,16.6,0x00c000,-36.1,0.00e-0
1663263544,C;S;V;F,,0x00c000,-35.9,0.00e-0
1663263545,C;S;V;F,16.9,0x00c000,,0.00e-0
1663263546,C;S;V;F,16.8,0x00c000,-36.1,0.00e-0
1663263547,C;S;V;F,16.6,0x00c000,-36.3,0.00e-0
1663263548,C;S;V;F,16.4,0x00c000,-36.1,0.00e-0
1663263549,C;S;V;F,16.5,0x00c000,-36.3,0.00e-0
1663263550,C;S;V;F,16.4,0x00c000,-36.4,0.00e-0
1663263551,C;S;V;F,16.4,0x00c000,-36.3,0.00e-0
1663263552,C;S;V;F,16.2,0x00c000,-36.3,0.00e-0
1663263553,C;S;V;F,16.2,0x00c000,-36.4,0.00e-0
1663263554,C;S;V;F,16.1,0x00c000,-36.5,0.00e-0
1663263555,,16.1,0x00c000,-36.4,
1663263556,C;S;V;F,16.2,0x00c000,-36.4,0.00e-0
1663263557,C;S;V;F,16.3,0x00c000,-36.3,0.00e-0
1663263558,C;S;V;F,16.5,0x00c000,-36.0,0.00e-0
1663263559,C;S;V;F,,0x00c000,-36.0,0.00e-0
1663263560,C;S;V;F,16.7,0x00c000,-36.3,0.00e-0
1663263561,C;S;V;F,16.6,0x00c000,,0.00e-0
1663263562,C;S;V;F,16.6,0x00c000,-36.3,0.00e-0
1663263563,C;S;V;F,16.3,0x00c000,-36.7,0.00e-0
1663263564,C;S;V;F,15.9,0x00c000,-36.8,0.00e-0
1663263565,C;S;V;F,15.8,0x00c000,-36.9,0.00e-0
1663263566,C;S;V;F,16.1,0x00c000,-36.4,0.00e-0
1663263567,C;S;V;F,16.2,0x00c000,-36.4,0.00e-0
1663263568,C;S;V;F,16.5,0x00c000,-36.2,0.00e-0
1663263569,C;S;V;F,16.5,0x00c000,-35.9,
1663263570,,16.4,0x00c000,-35.9,0.00e-0
1663263571,C;S;V;F,16.5,0x00c000,-36.3,0.00e-0
1663263572,C;S;V;F,,0x00c000,-36.2,0.00e-0
1663263573,C;S;V;F,16.2,0x00c000,-36.0,0.00e-0
1663263574,C;S;V;F,16.5,0x00c000,-36.1,0.00e-0
1663263575,C;S;V;F,16.6,0x00c000,,0.00e-0
1663263576,C;S;V;F,16.3,0x00c000,-36.4,0.00e-0
1663263577,C;S;V;F,16.4,0x00c000,-36.3,0.00e-0
1663263578,C;S;V;F,16.3,0x00c000,-36.0,0.00e-0
1663263579,C;S;V;F,16.5,0x00c000,-36.2,0.00e-0
1663263580,C;S;V;F,16.3,0x00c000,-35.9,0.00e-0
1663263581,C;S;V;F,16.5,0x00c000,-35.9,
1663263582,C;S;V;F,16.5,0x00c000,-36.0,0.00e-0
1663263583,,,,,0.00e-0
1663263586,C;S;V;F,16.7,0x00c000,-35.9,0.00e-0
1663263587,C;S;V;F,16.7,0x00c000,-35.9,0.00e-0
1663263588,C;S;V;F,16.8,0x00c000,-35.9,0.00e-0
1663263589,C;S;V;F,16.7,0x00c000,-35.8,0.00e-0
1663263590,C;S;V;F,16.8,0x00c000,-36.0,
1663263591,,16.8,0x00c000,-35.9,0.00e-0
1663263592,C;S;V;F,16.5,0x00c000,-36.0,0.00e-0
1663263593,C;S;V;F,16.5,0x00c000,-36.1,0.00e-0
1663263594,C;S;V;F,16.6,0x00c000,-36.0,0.00e-0
1663263595,C;S;V;F,,0x00c000,-35.7,0.00e-0
1663263596,C;S;V;F,16.7,0x00c000,,0.00e-0
1663263597,C;S;V;F,17.0,0x00c000,-35.7,0.00e-0
1663263598,C;S;V;F,16.8,0x00c000,-35.7,0.00e-0
1663263599,C;S;V;F,16.7,0x00c000,-35.6,0.00e-0
1663263600,C;S;V;F,16.9,0x00c000,-35.7,0.00e-0
1663263601,C;S;V;F,16.6,0x00c000,-36.1,0.00e-0
1663263604,C;S;V;F,16.9,0x00c000,-35.8,0.00e-0
1663263605,C;S;V;F,16.6,0x00c000,-35.8,0.00e-0
1663263606,C;S;V;F,16.8,0x00c000,-35.8,0.00e-0
1663263607,C;S;V;F,16.7,0x00c000,-36.0,
1663263608,,16.3,0x00c000,-36.2,0.00e-0
1663263609,C;S;V;F,16.7,0x00c000,-36.0,0.00e-0
1663263610,C;S;V;F,16.8,0x00c000,-36.0,0.00e-0
1663263611,C;S;V;F,,0x00c000,-36.0,0.00e-0
1663263612,C;S;V;F,16.4,0x00c000,-36.2,0.00e-0
1663263613,C;S;V;F,16.3,0x00c000,-35.9,0.00e-0
1663263614,C;S;V;F,16.4,0x00c000,,0.00e-0
1663263615,C;S;V;F,16.7,0x00c000,-35.7,0.00e-0
1663263616,C;S;V;F,16.8,0x00c000,-35.7,0.00e-0
1663263617,C;S;V;F,16.5,0x00c000,-35.9,0.00e-0
1663263618,C;S;V;F,16.8,0x00c000,-35.8,0.00e-0
1663263619,C;S;V;F,16.7,0x00c000,-35.8,0.00e-0
1663263620,C;S;V;F,16.7,0x00c000,-35.6,0.00e-0
1663263621,C;S;V;F,16.8,0x00c000,-35.6,0.00e-0
1663263622,C;S;V;F,17.0,0x00c000,-35.8,0.00e-0
1663263623,C;S;V;F,17.0,0x00c000,-35.6,
1663263624,C;S;V;F,16.8,0x00c000,-35.6,0.00e-0
1663263625,,17.0,0x00c000,-35.6,0.00e-0
1663263626,C;S;V;F,17.0,0x00c000,-35.5,0.00e-0
1663263627,C;S;V;F,,0x00c000,-35.3,0.00e-0
1663263628,C;S;V;F,16.9,0x00c000,-35.3,0.00e-0
1663263629,C;S;V;F,17.1,0x00c000,,0.00e-0
1663263630,C;S;V;F,17.3,0x00c000,-35.4,0.00e-0
1663263631,C;S;V;F,17.1,0x00c000,-35.2,0.00e-0
1663263632,C;S;V;F,17.2,0x00c000,-35.1,0.00e-0
1663263633,C;S;V;F,17.1,0x00c000,-35.0,0.00e-0
1663263634,C;S;V;F,17.3,0x00c000,-34.8,0.00e-0
1663263635,C;S;V;F,17.5,0x00c000,-34.9,0.00e-0
1663263636,C;S;V;F,17.4,0x00c000,-35.0,0.00e-0
1663263637,C;S;V;F,17.4,0x00c000,-35.1,0.00e-0
1663263638,C;S;V;F,17.3,0x00c000,-35.1,
1663263639,,17.4,0x00c000,-35.3,0.00e-0
1663263640,C;S;V;F,17.2,0x00c000,-35.2,0.00e-0
1663263641,C;S;V;F,17.3,0x00c000,-35.2,0.00e-0
1663263642,C;S;V;F,,0x00c000,-35.1,0.00e-0
1663263643,C;S;V;F,17.2,0x00c000,-35.0,0.00e-0
1663263644,C;S;V;F,17.2,0x00c000,,0.00e-0
1663263645,C;S;V;F,17.2,0x00c000,-34.8,0.00e-0
1663263646,C;S;V;F,17.4,0x00c000,-34.8,0.00e-0
1663263647,C;S;V;F,17.5,0x00c000,-35.0,0.00e-0
1663263648,C;S;V;F,17.3,0x00c000,-35.1,
1663263649,,17.4,0x00c000,-35.2,0.00e-0
1663263650,C;S;V;F,17.1,0x00c000,-35.0,0.00e-0
1663263651,C;S;V;F,,0x00c000,-35.1,0.00e-0
1663263652,C;S;V;F,17.3,0x00c000,-34.9,0.00e-0
1663263653,C;S;V;F,17.1,0x00c000,-34.9,0.00e-0
1663263654,C;S;V;F,17.1,0x00c000,,0.00e-0
1663263655,C;S;V;F,17.5,0x00c000,-34.8,0.00e-0
1663263656,C;S;V;F,17.5,0x00c000,-34.7,0.00e-0
1663263657,C;S;V;F,17.5,0x00c000,-34.8,0.00e-0
1663263658,C;S;V;F,17.5,0x00c000,-34.7,0.00e-0
1663263659,C;S;V;F,17.5,0x00c000,-34.7,0.00e-0
1663263660,C;S;V;F,17.5,0x00c000,-34.7,0.00e-0
1663263661,C;S;V;F,17.7,0x00c000,-34.8,0.00e-0
1663263662,C;S;V;F,17.5,0x00c000,-34.8,0.00e-0
1663263663,C;S;V;F,17.5,0x00c000,-34.9,
1663263664,,17.0,0x00c000,-35.1,0.00e-0
1663263665,C;S;V;F,,,,0.00e-0
1663263666,,,0x00c000,-35.2,
1663263667,C;S;V;F,17.2,0x00c000,-35.2,0.00e-0
1663263668,C;S;V;F,17.1,0x00c000,,0.00e-0
1663263669,C;S;V;F,17.0,0x00c000,-35.3,0.00e-0
1663263670,C;S;V;F,16.9,0x00c000,-35.6,0.00e-0
1663263671,C;S;V;F,16.9,0x00c000,-35.4,0.00e-0
1663263672,C;S;V;F,16.7,0x00c000,-35.8,0.00e-0
1663263673,C;S;V;F,16.5,0x00c000,-35.9,0.00e-0
1663263674,C;S;V;F,16.5,0x00c000,-35.8,0.00e-0
1663263675,C;S;V;F,16.6,0x00c000,-35.9,0.00e-0
1663263676,C;S;V;F,16.4,0x00c000,-35.9,
1663263677,,16.6,0x00c000,-35.9,0.00e-0
1663263678,C;S;V;F,16.5,0x00c000,-36.0,0.00e-0
1663263679,C;S;V;F,16.4,0x00c000,-35.9,0.00e-0
1663263680,C;S;V;F,16.5,0x00c000,-35.9,0.00e-0
1663263681,C;S;V;F,,0x00c000,-35.7,0.00e-0
1663263682,C;S;V;F,16.8,0x00c000,-35.9,0.00e-0
1663263683,C;S;V;F,16.4,0x00c000,,0.00e-0
1663263684,C;S;V;F,16.5,0x00c000,-36.0,0.00e-0
1663263685,C;S;V;F,16.5,0x00c000,-36.0,0.00e-0
1663263686,C;S;V;F,16.6,0x00c000,-35.8,0.00e-0
1663263687,C;S;V;F,16.3,0x00c000,-36.2,0.00e-0
1663263688,C;S;V;F,16.1,0x00c000,-36.4,0.00e-0
1663263689,C;S;V;F,16.0,0x00c000,-36.4,
1663263690,,16.3,0x00c000,-36.2,0.00e-0
1663263691,C;S;V;F,16.0,0x00c000,-36.2,0.00e-0
1663263692,C;S;V;F,16.4,0x00c000,-36.0,0.00e-0
1663263693,C;S;V;F,,0x00c000,-36.3,0.00e-0
1663263694,C;S;V;F,16.3,0x00c000,-36.3,0.00e-0
1663263695,C;S;V;F,16.2,0x00c000,,0.00e-0
1663263696,C;S;V;F,16.1,0x00c000,-36.3,0.00e-0
1663263697,C;S;V;F,16.1,0x00c000,-36.2,0.00e-0
1663263698,C;S;V;F,16.1,0x00c000,-36.1,0.00e-0
1663263699,C;S;V;F,15.5,0x00c000,-36.9,0.00e-0
1663263700,C;S;V;F,15.9,0x00c000,-36.6,0.00e-0
1663263701,C;S;V;F,16.1,0x00c000,-36.4,0.00e-0
1663263702,C;S;V;F,15.7,0x00c000,-36.4,0.00e-0
1663263703,C;S;V;F,15.9,0x00c000,-36.4,
1663263704,,16.1,0x00c000,-36.4,0.00e-0
1663263705,C;S;V;F,15.5,0x00c000,-37.0,0.00e-0
1663263706,C;S;V;F,15.4,0x00c000,-36.9,0.00e-0
1663263707,C;S;V;F,15.5,0x00c000,-36.7,0.00e-0
1663263708,C;S;V;F,,0x00c000,-36.8,0.00e-0
1663263709,C;S;V;F,15.8,0x00c000,-36.9,0.00e-0
1663263710,C;S;V;F,15.3,0x00c000,,0.00e-0